Weather History for Independence, KS

Change the Weather History Date:

Friday, January 3, 2014

  Actual Average (KCFV) Record (KCFV)
Temperature  
Mean Temperature 28 °F -  
Max Temperature 41 °F 43 °F 72 °F (1997)
Min Temperature 14 °F 24 °F 1 °F (2002)
Degree Days  
Heating Degree Days 38    
Moisture  
Dew Point 18 °F    
Average Humidity 67    
Maximum Humidity 86    
Minimum Humidity 49    
Precipitation  
Precipitation 0.00 in - - ()
Sea Level Pressure  
Sea Level Pressure 30.15 in    
Wind  
Wind Speed 10 mph (South)    
Max Wind Speed 28 mph    
Max Gust Speed 37 mph    
Visibility 10 miles    
Events      
Averages and records for this station are not official NWS values.
T = Trace of Precipitation, MM = Missing Value Source: NWS Daily Summary

Daily Weather History Graph

Daily Weather History Graph

Search for Another Location

Airport:

Trip Planner

Search our weather history database for the weather conditions in past years. The results will help you decide how hot, cold, wet, or windy it might be!

Date:

Astronomy

Jan. 03, 2014 Rise Set
Actual Time 7:37 AM CST 5:18 PM CST
Civil Twilight 7:08 AM CST 5:47 PM CST
Nautical Twilight 6:35 AM CST 6:19 PM CST
Astronomical Twilight 6:04 AM CST 6:51 PM CST
Moon 9:07 AM CST (1/3) 8:24 PM CST (1/3)
Length of Visible Light 10h 39m
Length of Day
9h 41m
Waxing Crescent, 8% of the Moon is Illuminated
Jan 3
Waxing Crescent
Jan 7
First Quarter
Jan 15
Full
Jan 23
Last Quarter
Jan 30
New

Hourly Weather History & Observations

Time (CST) Temp. Windchill Dew Point Humidity Pressure Visibility Wind Dir Wind Speed Gust Speed Precip Events Conditions
12:15 AM 14.0 °F - 10.4 °F 86% 30.46 in 10.0 mi Calm Calm - N/A   Clear
12:35 AM 14.0 °F - 10.4 °F 86% 30.46 in 10.0 mi Calm Calm - N/A   Clear
12:55 AM 14.0 °F 8.2 °F 10.4 °F 86% 30.45 in 10.0 mi SE 3.5 mph - N/A   Clear
1:15 AM 14.0 °F 8.2 °F 10.4 °F 86% 30.45 in 10.0 mi SE 3.5 mph - N/A   Clear
1:35 AM 15.8 °F 8.6 °F 10.4 °F 79% 30.44 in 10.0 mi SE 4.6 mph - N/A   Scattered Clouds
1:55 AM 15.8 °F 10.2 °F 10.4 °F 79% 30.44 in 10.0 mi SE 3.5 mph - N/A   Clear
2:15 AM 15.8 °F 8.6 °F 12.2 °F 86% 30.44 in 10.0 mi SE 4.6 mph - N/A   Clear
2:35 AM 15.8 °F 8.6 °F 12.2 °F 86% 30.44 in 10.0 mi SSE 4.6 mph - N/A   Clear
2:55 AM 15.8 °F - 12.2 °F 86% 30.43 in 10.0 mi Calm Calm - N/A   Clear
3:15 AM 15.8 °F - 12.2 °F 86% 30.44 in 10.0 mi Calm Calm - N/A   Clear
3:35 AM 14.0 °F 8.2 °F 10.4 °F 86% 30.43 in 10.0 mi SSE 3.5 mph - N/A   Clear
3:55 AM 14.0 °F 6.5 °F 10.4 °F 86% 30.42 in 10.0 mi South 4.6 mph - N/A   Clear
4:15 AM 14.0 °F 6.5 °F 10.4 °F 86% 30.40 in 10.0 mi SE 4.6 mph - N/A   Clear
4:35 AM 15.8 °F 6.1 °F 12.2 °F 86% 30.39 in 10.0 mi SSE 6.9 mph - N/A   Clear
4:55 AM 15.8 °F 5.1 °F 10.4 °F 79% 30.37 in 10.0 mi SE 8.1 mph - N/A   Clear
5:15 AM 17.6 °F 7.3 °F 12.2 °F 79% 30.36 in 10.0 mi SE 8.1 mph - N/A   Clear
5:35 AM 17.6 °F 8.2 °F 12.2 °F 79% 30.36 in 10.0 mi South 6.9 mph - N/A   Clear
5:55 AM 17.6 °F 8.2 °F 12.2 °F 79% 30.36 in 10.0 mi South 6.9 mph - N/A   Clear
6:15 AM 17.6 °F 8.2 °F 12.2 °F 79% 30.35 in 10.0 mi SSE 6.9 mph - N/A   Clear
6:35 AM 17.6 °F 6.4 °F 12.2 °F 79% 30.34 in 10.0 mi SSE 9.2 mph - N/A   Clear
6:55 AM 17.6 °F 9.3 °F 12.2 °F 79% 30.34 in 10.0 mi SSE 5.8 mph - N/A   Clear
7:15 AM 17.6 °F 8.2 °F 12.2 °F 79% 30.33 in 10.0 mi SSE 6.9 mph - N/A   Clear
7:35 AM 15.8 °F 6.1 °F 10.4 °F 79% 30.33 in 10.0 mi South 6.9 mph - N/A   Clear
7:55 AM 17.6 °F 8.2 °F 12.2 °F 79% 30.32 in 10.0 mi South 6.9 mph - N/A   Clear
8:15 AM 17.6 °F 7.3 °F 12.2 °F 79% 30.32 in 10.0 mi SSE 8.1 mph - N/A   Clear
8:35 AM 17.6 °F 6.4 °F 12.2 °F 79% 30.31 in 10.0 mi South 9.2 mph - N/A   Clear
8:55 AM 21.2 °F 9.5 °F 14.0 °F 74% 30.30 in 10.0 mi South 11.5 mph - N/A   Clear
9:15 AM 23.0 °F 10.1 °F 14.0 °F 68% 30.30 in 10.0 mi South 15.0 mph - N/A   Clear
9:35 AM 24.8 °F 12.4 °F 15.8 °F 69% 30.28 in 10.0 mi South 15.0 mph - N/A   Clear
9:55 AM 26.6 °F 16.8 °F 17.6 °F 69% 30.28 in 10.0 mi South 10.4 mph - N/A   Clear
10:15 AM 28.4 °F 16.6 °F 19.4 °F 69% 30.27 in 10.0 mi South 16.1 mph 25.3 mph N/A   Clear
10:35 AM 30.2 °F 18.5 °F 19.4 °F 64% 30.26 in 10.0 mi South 17.3 mph - N/A   Clear
10:55 AM 32.0 °F 20.8 °F 21.2 °F 64% 30.24 in 10.0 mi South 17.3 mph - N/A   Clear
11:15 AM 32.0 °F 19.2 °F 21.2 °F 64% 30.22 in 10.0 mi South 23.0 mph 28.8 mph N/A   Clear
11:35 AM 32.0 °F 20.1 °F 23.0 °F 69% 30.20 in 10.0 mi South 19.6 mph - N/A   Clear
11:55 AM 33.8 °F 23.2 °F 23.0 °F 65% 30.18 in 10.0 mi South 17.3 mph 24.2 mph N/A   Clear
12:15 PM 33.8 °F 22.2 °F 23.0 °F 65% 30.15 in 10.0 mi South 20.7 mph 26.5 mph N/A   Clear
12:35 PM 35.6 °F 24.2 °F 24.8 °F 65% 30.13 in 10.0 mi South 21.9 mph 25.3 mph N/A   Clear
12:55 PM 35.6 °F 24.5 °F 24.8 °F 65% 30.10 in 10.0 mi South 20.7 mph 29.9 mph N/A   Clear
1:15 PM 37.4 °F 26.9 °F 24.8 °F 60% 30.09 in 10.0 mi South 20.7 mph 26.5 mph N/A   Clear
1:35 PM 37.4 °F 27.2 °F 24.8 °F 60% 30.07 in 10.0 mi South 19.6 mph 26.5 mph N/A   Clear
1:55 PM 37.4 °F 27.5 °F 24.8 °F 60% 30.06 in 10.0 mi South 18.4 mph 28.8 mph N/A   Clear
2:15 PM 39.2 °F 28.5 °F 24.8 °F 56% 30.03 in 10.0 mi South 24.2 mph 27.6 mph N/A   Clear
2:35 PM 41.0 °F 30.7 °F 24.8 °F 53% 30.02 in 10.0 mi South 25.3 mph 31.1 mph N/A   Clear
2:55 PM 41.0 °F 30.2 °F 23.0 °F 49% 30.00 in 10.0 mi South 27.6 mph 32.2 mph N/A   Clear
3:15 PM 41.0 °F 30.9 °F 23.0 °F 49% 29.98 in 10.0 mi South 24.2 mph 29.9 mph N/A   Clear
3:35 PM 41.0 °F 31.6 °F 23.0 °F 49% 29.97 in 10.0 mi South 20.7 mph 32.2 mph N/A   Clear
3:55 PM 41.0 °F 31.4 °F 23.0 °F 49% 29.96 in 10.0 mi South 21.9 mph 32.2 mph N/A   Clear
4:15 PM 41.0 °F 30.7 °F 23.0 °F 49% 29.95 in 10.0 mi South 25.3 mph 29.9 mph N/A   Clear
4:35 PM 41.0 °F 30.5 °F 23.0 °F 49% 29.94 in 10.0 mi South 26.5 mph 36.8 mph N/A   Clear
4:55 PM 39.2 °F 28.0 °F 23.0 °F 52% 29.93 in 10.0 mi South 26.5 mph 34.5 mph N/A   Clear
5:15 PM 39.2 °F 28.5 °F 21.2 °F 49% 29.92 in 10.0 mi South 24.2 mph 33.4 mph N/A   Clear
5:35 PM 37.4 °F 27.2 °F 23.0 °F 56% 29.92 in 10.0 mi South 19.6 mph 27.6 mph N/A   Clear
5:55 PM 37.4 °F 27.5 °F 23.0 °F 56% 29.92 in 10.0 mi South 18.4 mph - N/A   Clear
6:15 PM 37.4 °F 27.5 °F 21.2 °F 52% 29.92 in 10.0 mi South 18.4 mph 26.5 mph N/A   Clear
6:35 PM 37.4 °F 27.2 °F 21.2 °F 52% 29.92 in 10.0 mi South 19.6 mph 25.3 mph N/A   Clear
6:55 PM 37.4 °F 26.6 °F 21.2 °F 52% 29.91 in 10.0 mi South 21.9 mph 27.6 mph N/A   Clear
7:15 PM 37.4 °F 27.5 °F 21.2 °F 52% 29.91 in 10.0 mi South 18.4 mph 26.5 mph N/A   Clear
7:35 PM 37.4 °F 27.2 °F 21.2 °F 52% 29.91 in 10.0 mi South 19.6 mph 27.6 mph N/A   Clear
7:55 PM 37.4 °F 27.8 °F 21.2 °F 52% 29.91 in 10.0 mi South 17.3 mph 26.5 mph N/A   Clear
8:15 PM 35.6 °F 26.2 °F 21.2 °F 56% 29.90 in 10.0 mi South 15.0 mph - N/A   Clear
8:35 PM 35.6 °F 25.2 °F 21.2 °F 56% 29.90 in 10.0 mi South 18.4 mph 23.0 mph N/A   Clear
8:55 PM 35.6 °F 25.5 °F 21.2 °F 56% 29.90 in 10.0 mi South 17.3 mph - N/A   Clear
9:15 PM 35.6 °F 24.8 °F 21.2 °F 56% 29.90 in 10.0 mi South 19.6 mph 26.5 mph N/A   Clear
9:35 PM 33.8 °F 23.5 °F 23.0 °F 65% 29.90 in 10.0 mi South 16.1 mph - N/A   Clear
9:55 PM 33.8 °F 22.8 °F 23.0 °F 65% 29.89 in 10.0 mi South 18.4 mph 21.9 mph N/A   Clear
10:15 PM 35.6 °F 24.5 °F 23.0 °F 60% 29.89 in 10.0 mi South 20.7 mph 25.3 mph N/A   Clear
10:35 PM 33.8 °F 22.5 °F 23.0 °F 65% 29.89 in 10.0 mi South 19.6 mph - N/A   Clear
10:55 PM 33.8 °F 22.5 °F 23.0 °F 65% 29.88 in 10.0 mi South 19.6 mph 28.8 mph N/A   Clear
11:15 PM 33.8 °F 21.6 °F 23.0 °F 65% 29.87 in 10.0 mi South 23.0 mph 29.9 mph N/A   Clear
11:35 PM 33.8 °F 21.9 °F 23.0 °F 65% 29.86 in 10.0 mi South 21.9 mph 31.1 mph N/A   Clear
11:55 PM 33.8 °F 21.3 °F 23.0 °F 65% 29.85 in 10.0 mi South 24.2 mph 29.9 mph N/A   Clear